Selinsgrove, PA

9:24 AM EDT on March 25, 2017 (GMT -0400)
Penn Valley

Weather History for KSEG - September, 2013

Change the Weather History Date:

Saturday, September 21, 2013

  Actual Average (KIPT) Record (KIPT)
Temperature  
Mean Temperature 63 °F -  
Max Temperature 71 °F 69 °F 94 °F (1931)
Min Temperature 55 °F 50 °F 33 °F (1956)
Degree Days  
Heating Degree Days 2    
Growing Degree Days 13 (Base 50)    
Moisture  
Dew Point 60 °F    
Average Humidity 88    
Maximum Humidity 100    
Minimum Humidity 68    
Precipitation  
Precipitation 0.63 in - - ()
Sea Level Pressure  
Sea Level Pressure 29.77 in    
Wind  
Wind Speed 4 mph (South)    
Max Wind Speed 9 mph    
Max Gust Speed 17 mph    
Visibility 7 miles    
Events Rain    
Averages and records for this station are not official NWS values.
T = Trace of Precipitation, MM = Missing Value Source: NWS Daily Summary

Daily Weather History Graph

Daily Weather History Graph

Search for Another Location

Airport or City:

Trip Planner

Search our weather history database for the weather conditions in past years. The results will help you decide how hot, cold, wet, or windy it might be!

Date:

Astronomy

Sep. 21, 2013 Rise Set
Actual Time 6:54 AM EDT 7:05 PM EDT
Civil Twilight 6:26 AM EDT 7:33 PM EDT
Nautical Twilight 5:54 AM EDT 8:05 PM EDT
Astronomical Twilight 5:21 AM EDT 8:37 PM EDT
Moon 8:14 PM EDT (9/21) 9:11 AM EDT (9/21)
Length of Visible Light 13h 06m
Length of Day
12h 11m
Waning Gibbous, 94% of the Moon is Illuminated
Sep 21
Waning Gibbous
Sep 26
Last Quarter
Oct 4
New
Oct 11
First Quarter
Oct 18
Full

Hourly Weather History & Observations

Time (EDT) Temp. Dew Point Humidity Pressure Visibility Wind Dir Wind Speed Gust Speed Precip Events Conditions
12:53 AM 55.0 °F 54.0 °F 96% 29.94 in 7.0 mi Calm Calm - N/A   Partly Cloudy
1:53 AM 57.0 °F 55.0 °F 93% 29.94 in 9.0 mi South 3.5 mph - N/A   Partly Cloudy
2:53 AM 61.0 °F 57.0 °F 87% 29.91 in 10.0 mi South 4.6 mph - N/A   Clear
3:53 AM 61.0 °F 57.0 °F 87% 29.91 in 10.0 mi South 5.8 mph - N/A   Mostly Cloudy
4:53 AM 61.0 °F 57.0 °F 87% 29.88 in 10.0 mi SSW 3.5 mph - N/A   Partly Cloudy
5:53 AM 62.1 °F 57.9 °F 86% 29.88 in 10.0 mi Variable 4.6 mph - N/A   Mostly Cloudy
6:29 AM 62.6 °F 57.2 °F 82% 29.88 in 10.0 mi Variable 5.8 mph - N/A   Overcast
6:53 AM 63.0 °F 57.9 °F 84% 29.87 in 10.0 mi South 5.8 mph - N/A   Overcast
7:53 AM 64.0 °F 57.9 °F 80% 29.86 in 10.0 mi South 5.8 mph - N/A   Overcast
8:22 AM 64.4 °F 59.0 °F 83% 29.86 in 10.0 mi South 5.8 mph - N/A   Overcast
8:53 AM 64.9 °F 59.0 °F 81% 29.85 in 9.0 mi South 6.9 mph - N/A   Overcast
9:53 AM 66.0 °F 60.1 °F 81% 29.83 in 8.0 mi South 8.1 mph 17.3 mph N/A   Overcast
10:01 AM 66.2 °F 60.8 °F 83% 29.84 in 9.0 mi South 9.2 mph - N/A   Overcast
10:53 AM 68.0 °F 60.1 °F 76% 29.82 in 9.0 mi South 8.1 mph - N/A   Overcast
11:53 AM 68.0 °F 60.1 °F 76% 29.79 in 9.0 mi South 9.2 mph - N/A   Overcast
12:53 PM 70.0 °F 61.0 °F 73% 29.75 in 10.0 mi South 6.9 mph - N/A   Overcast
1:09 PM 69.8 °F 60.8 °F 73% 29.75 in 10.0 mi South 5.8 mph - N/A   Overcast
1:40 PM 69.8 °F 60.8 °F 73% 29.74 in 10.0 mi Variable 4.6 mph - N/A   Overcast
1:53 PM 70.0 °F 61.0 °F 73% 29.73 in 10.0 mi SSE 4.6 mph - N/A   Overcast
2:53 PM 71.1 °F 60.1 °F 68% 29.70 in 10.0 mi South 8.1 mph 17.3 mph N/A   Overcast
3:53 PM 66.9 °F 61.0 °F 81% 29.68 in 3.0 mi Variable 3.5 mph - 0.03 in Rain Rain
4:00 PM 66.2 °F 62.6 °F 88% 29.69 in 1.8 mi Calm Calm - 0.03 in Rain Heavy Rain
4:18 PM 66.2 °F 62.6 °F 88% 29.69 in 3.0 mi Calm Calm - 0.09 in Rain Rain
4:32 PM 64.4 °F 62.6 °F 94% 29.69 in 1.8 mi South 3.5 mph - 0.14 in Rain Heavy Rain
4:53 PM 64.9 °F 63.0 °F 93% 29.69 in 1.8 mi South 4.6 mph - 0.20 in Rain Heavy Rain
5:01 PM 64.4 °F 62.6 °F 94% 29.68 in 2.0 mi SSE 3.5 mph - 0.03 in Rain Rain
5:13 PM 64.4 °F 62.6 °F 94% 29.68 in 4.0 mi Variable 3.5 mph - 0.03 in Rain Light Rain
5:31 PM 64.4 °F 62.6 °F 94% 29.70 in 2.5 mi Variable 3.5 mph - 0.05 in Rain Rain
5:46 PM 64.4 °F 62.6 °F 94% 29.70 in 1.2 mi Variable 5.8 mph - 0.11 in Rain Heavy Rain
5:53 PM 64.9 °F 63.0 °F 93% 29.70 in 1.0 mi Variable 3.5 mph - 0.14 in Rain Heavy Rain
6:00 PM 64.4 °F 62.6 °F 94% 29.71 in 1.5 mi Variable 6.9 mph - 0.03 in Rain Heavy Rain
6:14 PM 64.4 °F 62.6 °F 94% 29.71 in 2.0 mi Calm Calm - 0.08 in Rain Rain
6:40 PM 62.6 °F 60.8 °F 94% 29.70 in 3.0 mi NW 3.5 mph - 0.13 in Rain Rain
6:53 PM 63.0 °F 60.1 °F 90% 29.71 in 6.0 mi Calm Calm - 0.14 in Rain Light Rain
7:53 PM 62.1 °F 60.1 °F 93% 29.71 in 8.0 mi Calm Calm - 0.05 in Rain Light Rain
8:53 PM 61.0 °F 60.1 °F 97% 29.71 in 9.0 mi Calm Calm - 0.02 in Rain Light Rain
9:44 PM 60.8 °F 60.8 °F 100% 29.73 in 8.0 mi Calm Calm - 0.05 in Rain Light Rain
9:53 PM 61.0 °F 60.1 °F 97% 29.73 in 10.0 mi Calm Calm - 0.05 in Rain Light Rain
10:12 PM 60.8 °F 60.8 °F 100% 29.73 in 10.0 mi Calm Calm - 0.00 in   Mostly Cloudy
10:53 PM 60.1 °F 59.0 °F 96% 29.73 in 9.0 mi Calm Calm - 0.00 in   Overcast
11:03 PM 60.8 °F 59.0 °F 94% 29.74 in 10.0 mi Calm Calm - N/A   Overcast
11:45 PM 60.8 °F 59.0 °F 94% 29.74 in 10.0 mi Calm Calm - N/A   Mostly Cloudy
11:53 PM 60.1 °F 59.0 °F 96% 29.73 in 10.0 mi Calm Calm - N/A   Mostly Cloudy